Terminal Aerodrome Forecast
Issued by NWS

Current Version | Previous Version | Graphics & Text | Print | Product List | Glossary On
Versions: 1 2 3 4 5 6 7 8 9 10 11 12 13 14 15 16 17 18 19 20 21 22 23 24
333
FTUS41 KRLX 202014 AAA
TAFCKB
TAF AMD
KCKB 202014Z 2020/2118 24008KT P6SM SCT030 BKN045
     FM202300 00000KT P6SM BKN050
     FM210800 19003KT 4SM BR BKN050
     FM211300 VRB03KT P6SM BKN100=

USA.gov is the U.S. government's official web portal to all federal, state and local government web resources and services.